This demonstration page uses our WeatherBlox Daily Observations layout. Learn more.

38.88101, -77.10428

Hourly Observations for April 14, 2018

Temp ( °F °C ) Dew Point ( °F °C ) Humidity (%) Winds ( mph kmh ) Pressure ( in mb ) Visibility ( mi km ) Precip ( " mm )
12:52 am 00:52 Partly Cloudy 72 22.2 49 9.4 44 44 SSW 12 19 29.93 1013 10 16.0934 0 0
1:52 am 01:52 Mostly Cloudy 67 19.4 51 10.6 57 57 S 12 19 29.92 1013 10 16.0934 0 0
2:52 am 02:52 Clear 70 21.1 50 10 49 49 SSW 13 20 29.91 1013 10 16.0934 0 0
3:52 am 03:52 Clear 66 18.9 51 10.6 59 59 S 8 13 29.91 1013 10 16.0934 0 0
4:52 am 04:52 Clear 66 18.9 51 10.6 59 59 S 7 11 29.93 1014 10 16.0934 0 0
5:52 am 05:52 Clear 63 17.2 52 11.1 68 68 S 9 15 29.95 1014 10 16.0934 0 0
6:52 am 06:52 Partly Cloudy 64 17.8 52 11.1 65 65 S 12 19 29.97 1015 10 16.0934 0 0
7:52 am 07:52 Partly Cloudy 67 19.4 54 12.2 63 63 SSW 13 20 29.98 1015 10 16.0934 0 0
8:52 am 08:52 Partly Cloudy 69 20.6 56 13.3 63 63 SSW 13 20 29.98 1015 10 16.0934 0 0
9:52 am 09:52 Partly Cloudy 72 22.2 57 13.9 59 59 S 16 26 29.99 1016 10 16.0934 0 0
10:52 am 10:52 Mostly Sunny 75 23.9 57 13.9 54 54 SSW 15 24 29.98 1015 10 16.0934 0 0
11:52 am 11:52 Mostly Sunny 77 25 57 13.9 50 50 S 15 24 29.98 1015 10 16.0934 0 0
12:52 pm 12:52 Partly Cloudy 79 26.1 57 13.9 47 47 S 15 24 29.95 1014 10 16.0934 0 0
1:52 pm 13:52 Partly Cloudy 83 28.3 56 13.3 40 40 S 14 22 29.92 1013 10 16.0934 0 0
2:52 pm 14:52 Mostly Cloudy 84 28.9 55 12.8 37 37 S 18 30 29.89 1012 10 16.0934 0 0
3:52 pm 15:52 Mostly Cloudy 84 28.9 54 12.2 36 36 SSW 18 30 29.87 1012 10 16.0934 0 0
4:52 pm 16:52 Mostly Cloudy 83 28.3 54 12.2 37 37 S 17 28 29.86 1011 10 16.0934 0 0
5:52 pm 17:52 Mostly Cloudy 83 28.3 54 12.2 37 37 S 17 28 29.87 1012 10 16.0934 0 0
6:52 pm 18:52 Mostly Cloudy 81 27.2 54 12.2 39 39 S 12 19 29.88 1012 10 16.0934 0 0
7:52 pm 19:52 Cloudy 79 26.1 53 11.7 41 41 S 14 22 29.89 1012 10 16.0934 0 0
8:52 pm 20:52 Mostly Cloudy 74 23.3 54 12.2 50 50 S 10 17 29.9 1013 10 16.0934 0 0
9:52 pm 21:52 Partly Cloudy 71 21.7 55 12.8 57 57 S 12 19 29.93 1014 10 16.0934 0 0
10:52 pm 22:52 Mostly Clear 70 21.1 55 12.8 59 59 S 12 19 29.93 1014 10 16.0934 0 0
11:52 pm 23:52 Partly Cloudy 69 20.6 55 12.8 61 61 S 10 17 29.93 1014 10 16.0934 0 0

Powered by AerisWeather